Regional Weather Roundup
Issued by NWS

Home | Current Version | Previous Version | Graphics & Text | Print | Product List | Glossary On
Versions: 1 2 3 4 5 6 7 8 9 10 11 12 13 14 15 16 17 18 19 20 21 22 23 24 25 26 27 28 29 30 31 32 33 34 35 36 37 38 39 40 41 42 43 44 45 46 47 48 49 50
000
ASUS43 KMKX 201359
RWRWI

WISCONSIN REGIONAL WEATHER ROUNDUP
NATIONAL WEATHER SERVICE MILWAUKEE/SULLIVAN WI
900 AM CDT FRI APR 20 2018

NOTE: "FAIR" INDICATES FEW OR NO CLOUDS BELOW 12,000 FEET WITH NO
SIGNIFICANT WEATHER AND/OR OBSTRUCTIONS TO VISIBILITY.

WIZ001-002-006>008-014>016-023>028-201500-
NORTHWEST WISCONSIN

CITY           SKY/WX    TMP DP  RH WIND       PRES   REMARKS
SUPERIOR ARPT  FAIR      41  26  56 SW7       30.47R
ASHLAND        FAIR      42  24  49 SW9       30.46R
HAYWARD        FAIR      37  26  64 S5        30.48R WCI  33
SIREN          FAIR      39  28  66 CALM      30.49S
CUMBERLAND     FAIR      28  19  69 CALM      30.49R
RICE LAKE      FAIR      30  26  83 CALM      30.51R
CHETEK         FAIR      33  24  69 CALM      30.51R
LADYSMITH      FAIR      36  23  59 CALM      30.50S
EAU CLAIRE     FAIR      37  27  67 CALM      30.51R
MENOMONIE      FAIR      35  29  78 CALM      30.52R
NEW RICHMOND   FAIR      36  26  67 SW3       30.51R
OSCEOLA        FAIR      33  26  75 CALM      30.54R
$$

WIZ003>005-009-010-017-018-201500-
NORTH CENTRAL WISCONSIN

CITY           SKY/WX    TMP DP  RH WIND       PRES   REMARKS
MANITOWISH WTR FAIR      34  16  48 CALM      30.45R
ARBOR VITAE    FAIR      37  19  49 CALM      30.45S
WOODRUFF       FAIR      37  19  49 CALM      30.45S
RHINELANDER    FAIR      37  20  50 W6        30.46S WCI  32
EAGLE RIVER    FAIR      34  15  46 CALM      30.45S
LAND O LAKES   FAIR      40  14  35 CALM      30.46S
PHILLIPS       FAIR      34  20  56 CALM      30.47R
TOMAHAWK       FAIR      31  16  54 CALM      30.48R
MEDFORD        FAIR      35  20  53 W3        30.48R
MERRILL          N/A     32  18  57 CALM      30.49R
$$

WIZ029-030-035-036-043>047-201500-
CENTRAL WISCONSIN

CITY           SKY/WX    TMP DP  RH WIND       PRES   REMARKS
WAUSAU         FAIR      37  20  50 NW3       30.47R
MOSINEE        SUNNY     37  21  52 N3        30.50R
MARSHFIELD     FAIR      35  20  54 NW7       30.48R WCI  29
STEVENS POINT  FAIR      31  20  63 CALM      30.49S
WAUPACA        FAIR      40  21  46 CALM      30.50R
WAUTOMA        FAIR      39  19  44 CALM      30.50R
WISC RAPIDS    FAIR      36  20  52 CALM      30.51R
CAMP DOUGLAS   SUNNY     36  25  64 W3        30.51R
$$

WIZ011>013-019>022-031-037>040-048>050-201500-
NORTHEAST WISCONSIN

CITY           SKY/WX    TMP DP  RH WIND       PRES   REMARKS
ANTIGO         FAIR      30  20  64 CALM      30.48R
SHAWANO        FAIR      40  18  41 CALM      30.49S
OCONTO         FAIR      32  14  46 CALM      30.48S
STURGEON BAY   FAIR      42  12  29 W5        30.49R
GREEN BAY      FAIR      36  23  59 CALM      30.50R
MANITOWOC      FAIR      38  24  57 CALM      30.51R
APPLETON       NOT AVBL
CLINTONVILLE   FAIR      35  18  49 CALM      30.49S
OSHKOSH        FAIR      37  22  54 W3        30.50R
$$

WIZ032>034-041-042-053>061-201500-
SOUTHWEST WISCONSIN

CITY           SKY/WX    TMP DP  RH WIND       PRES   REMARKS
LA CROSSE      FAIR      35  28  75 VRB3      30.53R
SPARTA         FAIR      29  24  81 CALM      30.54R
VIROQUA        FAIR      33  25  70 CALM      30.51S
BOSCOBEL       FAIR      36  29  75 CALM      30.54S
PRAIRIE DU CHI FAIR      32  27  80 CALM      30.54R
PLATTEVILLE    FAIR      39  32  78 CALM      30.52S
$$

WIZ056-057-062-063-064-067-068-201500-
SOUTH CENTRAL WISCONSIN

CITY           SKY/WX    TMP DP  RH WIND       PRES   REMARKS
REEDSBURG      FAIR      32  26  77 CALM      30.51S
BARABOO/DELLS  FAIR      32  22  67 CALM      30.51S
LONE ROCK      NOT AVBL
MINERAL POINT  FAIR      41  32  70 N5        30.51S
MADISON        FAIR      40  28  62 CALM      30.51R
MIDDLETON      FAIR      40  28  61 W3        30.51R
WATERTOWN      FAIR      32  25  75 CALM      30.50R
MONROE         FAIR      41  25  52 W3        30.51R
JANESVILLE     SUNNY     39  30  70 CALM      30.51R
$$

WIZ051-052-058>065-066-070>072-201500-
SOUTHEAST WISCONSIN

CITY           SKY/WX    TMP DP  RH WIND       PRES   REMARKS
MILWAUKEE      FAIR      44  25  47 CALM      30.50S
WAUKESHA       SUNNY     27  21  80 CALM      30.51R
MILWAUKEE/TIMM SUNNY     39  21  48 CALM      30.51R
RACINE         FAIR      46  25  43 CALM      30.52R
BURLINGTON     FAIR      37  24  59 CALM      30.50S
KENOSHA        FAIR      46  26  45 CALM      30.50S
FOND DU LAC    FLURRIES  35  21  56 CALM      30.50R
SHEBOYGAN      FAIR      41  26  55 CALM      30.50R
WEST BEND      FAIR      37  25  60 CALM      30.49S
JUNEAU         FAIR      32  23  69 CALM      30.51R
$$

LSZ147-162-201500-
LAKE SUPERIOR

STATION/POSITION TIME  TEMP    WIND        PRES    WAVE
                       AIR SEA DIR/SP/G            HT/PER
                 (UTC) (F)     (DEG/KT/KT) (MB)    (FT/S)
DEVILS ISLAND    1300   39     230/  9/ 11 1031.6R
SAXON HARBOR     1330   45     190/  6/  9 1030.5S
$$

LMZ867-665-643>646-201500-
LAKE MICHIGAN

STATION/POSITION TIME  TEMP    WIND        PRES    WAVE
                       AIR SEA DIR/SP/G            HT/PER
                 (UTC) (F)     (DEG/KT/KT) (MB)    (FT/S)
NORTHPORT PIER   1340   38                 1031.8R
KEWAUNEE LAKESHO 1330   38     290/  3/  4 1031.4R
SHEBOYGAN LAKESH 1300   39     280/  2/  3 1032.9R
PORT WASHINGTON  1330   45     320/  1/  3 1033.5R
MILWAUKEE LAKESH 1330   42     230/  1/  1   N/A
KENOSHA   LAKESH 1300   40                 1032.8
$$

TC  - TEMPERATURE IN CELSIUS
VSB - VISIBILITY IN STATUTE MILES
WCI - WIND CHILL INDEX
HX  - HEAT INDEX





USA.gov is the U.S. government's official web portal to all federal, state and local government web resources and services.